Location: Oberwangen
(47.4286°N, 8.9679°E)
Time: 11:26:31
(UTC+00:00)

Cosmos 1816 Rocket - Pass Details

Date: 22 October 2021
Orbit: 952 x 998 km, 82.9° (Epoch: 08 December)

Event Time Altitude Azimuth Distance (km) Brightness Sun altitude
Rises 20:59:59 0° 340° (NNW) 3,648 8.1 -45.0°
Reaches altitude 10° 21:03:01 10° 326° (NW) 2,703 7.4 -45.3°
Enters shadow 21:05:22 18° 306° (NW) 2,167 6.7 -45.6°
